Time,TemperatureF,DewpointF,PressureIn,WindDirection,WindDirectionDegrees,WindSpeedMPH,WindSpeedGustMPH,Humidity,HourlyPrecipIn,Conditions,Clouds,dailyrainin,SoftwareType,DateUTC
2013-04-30 00:07:00,44.4,32.0,30.14,SSW,210,0.0,11.0,63,0.00,,,0.00,weatherlink.com 1.10,2013-04-30 07:07:00,
2013-04-30 00:22:00,44.2,32.0,30.14,WSW,254,6.0,10.0,63,0.00,,,0.00,weatherlink.com 1.10,2013-04-30 07:22:00,
2013-04-30 00:37:00,43.6,32.0,30.15,West,264,3.0,9.0,65,0.00,,,0.00,weatherlink.com 1.10,2013-04-30 07:37:00,
2013-04-30 00:52:00,43.9,32.0,30.15,WSW,257,6.0,13.0,64,0.00,,,0.00,weatherlink.com 1.10,2013-04-30 07:52:00,
2013-04-30 01:08:00,44.0,32.0,30.15,WSW,254,7.0,10.0,63,0.00,,,0.00,weatherlink.com 1.10,2013-04-30 08:08:00,
2013-04-30 01:23:00,44.0,32.0,30.16,South,175,4.0,13.0,63,0.00,,,0.00,weatherlink.com 1.10,2013-04-30 08:23:00,
2013-04-30 01:38:00,43.7,31.0,30.17,West,259,0.0,9.0,61,0.00,,,0.00,weatherlink.com 1.10,2013-04-30 08:38:00,
2013-04-30 01:53:00,43.6,32.0,30.17,SSW,195,6.0,13.0,63,0.00,,,0.00,weatherlink.com 1.10,2013-04-30 08:53:00,
2013-04-30 02:08:00,43.7,32.0,30.18,West,275,4.0,9.0,63,0.00,,,0.00,weatherlink.com 1.10,2013-04-30 09:08:00,
2013-04-30 02:23:00,43.6,32.0,30.18,WSW,250,1.0,10.0,63,0.00,,,0.00,weatherlink.com 1.10,2013-04-30 09:23:00,
2013-04-30 02:38:00,43.4,32.0,30.19,West,265,1.0,5.0,65,0.00,,,0.00,weatherlink.com 1.10,2013-04-30 09:38:00,
2013-04-30 02:53:00,43.5,31.0,30.18,WNW,293,1.0,7.0,61,0.00,,,0.00,weatherlink.com 1.10,2013-04-30 09:53:00,
2013-04-30 03:08:00,43.7,32.0,30.19,WSW,244,4.0,8.0,63,0.00,,,0.00,weatherlink.com 1.10,2013-04-30 10:08:00,
2013-04-30 03:23:00,43.9,31.0,30.19,West,281,3.0,10.0,62,0.00,,,0.00,weatherlink.com 1.10,2013-04-30 10:23:00,
2013-04-30 03:38:00,43.7,32.0,30.19,WSW,239,8.0,10.0,64,0.00,,,0.00,weatherlink.com 1.10,2013-04-30 10:38:00,
2013-04-30 03:53:00,43.6,32.0,30.20,WSW,237,4.0,10.0,64,0.00,,,0.00,weatherlink.com 1.10,2013-04-30 10:53:00,
2013-04-30 04:08:00,43.4,32.0,30.20,WSW,258,0.0,9.0,65,0.00,,,0.00,weatherlink.com 1.10,2013-04-30 11:08:00,
2013-04-30 04:23:00,43.4,32.0,30.20,West,275,3.0,9.0,65,0.00,,,0.00,weatherlink.com 1.10,2013-04-30 11:23:00,
2013-04-30 04:38:00,43.3,32.0,30.20,West,264,5.0,10.0,65,0.00,,,0.00,weatherlink.com 1.10,2013-04-30 11:38:00,
2013-04-30 04:53:00,43.4,32.0,30.21,West,277,2.0,8.0,65,0.00,,,0.00,weatherlink.com 1.10,2013-04-30 11:53:00,
2013-04-30 05:08:00,43.2,33.0,30.21,NNW,340,3.0,7.0,67,0.00,,,0.00,weatherlink.com 1.10,2013-04-30 12:08:00,
2013-04-30 05:23:00,43.1,34.0,30.21,WSW,246,2.0,6.0,69,0.00,,,0.00,weatherlink.com 1.10,2013-04-30 12:23:00,
2013-04-30 05:38:00,43.0,33.0,30.20,NNW,329,0.0,6.0,69,0.00,,,0.00,weatherlink.com 1.10,2013-04-30 12:38:00,
2013-04-30 05:53:00,42.8,34.0,30.21,NW,312,0.0,5.0,70,0.00,,,0.00,weatherlink.com 1.10,2013-04-30 12:53:00,
2013-04-30 06:08:00,43.0,33.0,30.21,West,270,2.0,9.0,68,0.00,,,0.00,weatherlink.com 1.10,2013-04-30 13:08:00,
2013-04-30 06:23:00,43.2,34.0,30.22,SW,231,3.0,10.0,69,0.00,,,0.00,weatherlink.com 1.10,2013-04-30 13:23:00,
2013-04-30 06:38:00,43.1,34.0,30.22,WSW,250,2.0,11.0,70,0.00,,,0.00,weatherlink.com 1.10,2013-04-30 13:38:00,
2013-04-30 06:53:00,43.4,33.0,30.22,West,271,6.0,9.0,68,0.00,,,0.00,weatherlink.com 1.10,2013-04-30 13:53:00,
2013-04-30 07:08:00,43.5,34.0,30.23,NNE,16,0.0,11.0,69,0.00,,,0.00,weatherlink.com 1.10,2013-04-30 14:08:00,
2013-04-30 07:23:00,43.6,33.0,30.23,West,273,2.0,8.0,67,0.00,,,0.00,weatherlink.com 1.10,2013-04-30 14:23:00,
2013-04-30 07:38:00,44.0,35.0,30.24,WSW,247,0.0,7.0,70,0.00,,,0.00,weatherlink.com 1.10,2013-04-30 14:38:00,
2013-04-30 07:53:00,44.5,35.0,30.25,West,272,1.0,7.0,69,0.00,,,0.00,weatherlink.com 1.10,2013-04-30 14:53:00,
2013-04-30 08:08:00,45.2,35.0,30.25,WSW,258,0.0,8.0,68,0.00,,,0.00,weatherlink.com 1.10,2013-04-30 15:08:00,
2013-04-30 08:23:00,45.1,35.0,30.25,SW,235,2.0,8.0,67,0.00,,,0.00,weatherlink.com 1.10,2013-04-30 15:23:00,
2013-04-30 08:38:00,46.0,37.0,30.25,West,267,5.0,15.0,71,0.00,,,0.00,weatherlink.com 1.10,2013-04-30 15:38:00,
2013-04-30 08:53:00,46.6,36.0,30.25,WSW,239,8.0,11.0,67,0.00,,,0.00,weatherlink.com 1.10,2013-04-30 15:53:00,
2013-04-30 09:08:00,47.1,36.0,30.25,SW,231,8.0,11.0,66,0.00,,,0.00,weatherlink.com 1.10,2013-04-30 16:08:00,
2013-04-30 09:23:00,45.1,35.0,30.25,WSW,256,0.0,8.0,68,0.00,,,0.00,weatherlink.com 1.10,2013-04-30 16:23:00,
2013-04-30 09:39:00,49.3,37.0,30.24,West,269,1.0,12.0,63,0.00,,,0.00,weatherlink.com 1.10,2013-04-30 16:39:00,
2013-04-30 09:54:00,47.5,35.0,30.25,WSW,244,8.0,13.0,62,0.00,,,0.00,weatherlink.com 1.10,2013-04-30 16:54:00,
2013-04-30 10:09:00,49.8,35.0,30.25,WSW,244,8.0,10.0,58,0.00,,,0.00,weatherlink.com 1.10,2013-04-30 17:09:00,
2013-04-30 10:24:00,47.6,35.0,30.26,SW,221,3.0,10.0,61,0.00,,,0.00,weatherlink.com 1.10,2013-04-30 17:24:00,
2013-04-30 10:39:00,48.5,35.0,30.26,SW,222,5.0,9.0,60,0.00,,,0.00,weatherlink.com 1.10,2013-04-30 17:39:00,
2013-04-30 10:54:00,50.1,36.0,30.26,WSW,241,8.0,14.0,59,0.00,,,0.00,weatherlink.com 1.10,2013-04-30 17:54:00,
2013-04-30 11:09:00,49.5,36.0,30.27,SSE,153,4.0,13.0,61,0.00,,,0.00,weatherlink.com 1.10,2013-04-30 18:09:00,
2013-04-30 11:24:00,48.4,36.0,30.28,SW,222,4.0,13.0,62,0.00,,,0.00,weatherlink.com 1.10,2013-04-30 18:24:00,
2013-04-30 11:39:00,49.7,37.0,30.28,SW,229,1.0,12.0,61,0.00,,,0.00,weatherlink.com 1.10,2013-04-30 18:39:00,
2013-04-30 11:54:00,48.8,39.0,30.27,SW,233,8.0,13.0,68,0.00,,,0.00,weatherlink.com 1.10,2013-04-30 18:54:00,
2013-04-30 12:09:00,52.7,39.0,30.27,SW,231,4.0,13.0,61,0.00,,,0.00,weatherlink.com 1.10,2013-04-30 19:09:00,
2013-04-30 12:24:00,50.3,37.0,30.28,SSW,200,9.0,14.0,60,0.00,,,0.00,weatherlink.com 1.10,2013-04-30 19:24:00,
2013-04-30 12:39:00,51.4,37.0,30.28,SW,225,7.0,9.0,58,0.00,,,0.00,weatherlink.com 1.10,2013-04-30 19:39:00,
2013-04-30 12:54:00,51.7,35.0,30.28,SW,223,5.0,14.0,53,0.00,,,0.00,weatherlink.com 1.10,2013-04-30 19:54:00,
2013-04-30 13:09:00,56.2,38.0,30.27,SW,215,4.0,12.0,50,0.00,,,0.00,weatherlink.com 1.10,2013-04-30 20:09:00,
2013-04-30 13:24:00,51.4,34.0,30.28,WNW,296,6.0,14.0,52,0.00,,,0.00,weatherlink.com 1.10,2013-04-30 20:24:00,
2013-04-30 13:39:00,53.5,35.0,30.28,SW,230,3.0,11.0,49,0.00,,,0.00,weatherlink.com 1.10,2013-04-30 20:39:00,
2013-04-30 13:54:00,53.0,33.0,30.29,SW,224,5.0,13.0,47,0.00,,,0.00,weatherlink.com 1.10,2013-04-30 20:54:00,
2013-04-30 14:09:00,56.8,37.0,30.28,SW,216,5.0,11.0,47,0.00,,,0.00,weatherlink.com 1.10,2013-04-30 21:09:00,
2013-04-30 14:24:00,57.3,35.0,30.29,WSW,247,1.0,10.0,43,0.00,,,0.00,weatherlink.com 1.10,2013-04-30 21:24:00,
2013-04-30 14:39:00,55.9,36.0,30.29,WSW,257,7.0,13.0,48,0.00,,,0.00,weatherlink.com 1.10,2013-04-30 21:39:00,
2013-04-30 14:54:00,56.9,36.0,30.30,West,274,3.0,11.0,46,0.00,,,0.00,weatherlink.com 1.10,2013-04-30 21:54:00,
2013-04-30 15:09:00,56.8,33.0,30.29,WSW,246,1.0,11.0,41,0.00,,,0.00,weatherlink.com 1.10,2013-04-30 22:09:00,
2013-04-30 15:24:00,53.8,32.0,30.29,SSW,210,3.0,13.0,44,0.00,,,0.00,weatherlink.com 1.10,2013-04-30 22:24:00,
2013-04-30 15:39:00,57.8,36.0,30.28,SW,223,3.0,11.0,45,0.00,,,0.00,weatherlink.com 1.10,2013-04-30 22:39:00,
2013-04-30 15:54:00,54.8,35.0,30.28,SW,231,3.0,12.0,48,0.00,,,0.00,weatherlink.com 1.10,2013-04-30 22:54:00,
2013-04-30 16:09:00,53.7,33.0,30.29,South,190,4.0,11.0,45,0.00,,,0.00,weatherlink.com 1.10,2013-04-30 23:09:00,
2013-04-30 16:24:00,55.7,34.0,30.28,WSW,237,10.0,10.0,45,0.00,,,0.00,weatherlink.com 1.10,2013-04-30 23:24:00,
2013-04-30 16:39:00,56.3,36.0,30.28,WSW,250,5.0,12.0,47,0.00,,,0.00,weatherlink.com 1.10,2013-04-30 23:39:00,
2013-04-30 16:54:00,55.7,34.0,30.29,SW,235,2.0,13.0,45,0.00,,,0.00,weatherlink.com 1.10,2013-04-30 23:54:00,
2013-04-30 17:09:00,54.3,36.0,30.29,WSW,241,2.0,12.0,50,0.00,,,0.00,weatherlink.com 1.10,2013-05-01 00:09:00,
2013-04-30 17:24:00,54.1,35.0,30.29,WSW,246,5.0,11.0,48,0.00,,,0.00,weatherlink.com 1.10,2013-05-01 00:24:00,
2013-04-30 17:39:00,54.1,35.0,30.30,West,262,3.0,14.0,48,0.00,,,0.00,weatherlink.com 1.10,2013-05-01 00:39:00,
2013-04-30 17:54:00,53.7,34.0,30.31,WSW,249,2.0,12.0,48,0.00,,,0.00,weatherlink.com 1.10,2013-05-01 00:54:00,
2013-04-30 18:09:00,53.3,34.0,30.31,SSW,212,3.0,12.0,48,0.00,,,0.00,weatherlink.com 1.10,2013-05-01 01:09:00,
2013-04-30 18:24:00,53.3,35.0,30.31,SW,225,2.0,10.0,50,0.00,,,0.00,weatherlink.com 1.10,2013-05-01 01:24:00,
2013-04-30 18:39:00,53.1,34.0,30.31,WSW,253,2.0,13.0,48,0.00,,,0.00,weatherlink.com 1.10,2013-05-01 01:39:00,
2013-04-30 18:54:00,52.7,33.0,30.32,WSW,251,5.0,10.0,48,0.00,,,0.00,weatherlink.com 1.10,2013-05-01 01:54:00,
2013-04-30 19:09:00,52.0,33.0,30.32,West,270,3.0,9.0,49,0.00,,,0.00,weatherlink.com 1.10,2013-05-01 02:09:00,
2013-04-30 19:24:00,51.7,33.0,30.32,NW,320,0.0,8.0,50,0.00,,,0.00,weatherlink.com 1.10,2013-05-01 02:24:00,
2013-04-30 19:39:00,51.5,33.0,30.33,West,275,3.0,7.0,50,0.00,,,0.00,weatherlink.com 1.10,2013-05-01 02:39:00,
2013-04-30 19:55:00,51.0,33.0,30.33,WNW,287,7.0,8.0,50,0.00,,,0.00,weatherlink.com 1.10,2013-05-01 02:55:00,
2013-04-30 20:10:00,51.0,33.0,30.34,WNW,298,3.0,9.0,50,0.00,,,0.00,weatherlink.com 1.10,2013-05-01 03:10:00,
2013-04-30 20:25:00,50.8,33.0,30.34,SW,229,3.0,11.0,51,0.00,,,0.00,weatherlink.com 1.10,2013-05-01 03:25:00,
2013-04-30 20:40:00,50.7,32.0,30.35,WNW,295,2.0,8.0,50,0.00,,,0.00,weatherlink.com 1.10,2013-05-01 03:40:00,
2013-04-30 20:55:00,50.4,33.0,30.36,WNW,282,2.0,6.0,51,0.00,,,0.00,weatherlink.com 1.10,2013-05-01 03:55:00,
2013-04-30 21:10:00,50.1,33.0,30.37,NW,308,2.0,7.0,52,0.00,,,0.00,weatherlink.com 1.10,2013-05-01 04:10:00,
2013-04-30 21:25:00,49.8,33.0,30.37,West,270,2.0,9.0,52,0.00,,,0.00,weatherlink.com 1.10,2013-05-01 04:25:00,
2013-04-30 21:40:00,47.7,34.0,30.38,WSW,250,2.0,2.0,59,0.00,,,0.00,weatherlink.com 1.10,2013-05-01 04:40:00,
2013-04-30 21:55:00,44.4,33.0,30.38,NNW,329,2.0,4.0,65,0.00,,,0.00,weatherlink.com 1.10,2013-05-01 04:55:00,
2013-04-30 22:10:00,43.0,33.0,30.39,NNW,335,3.0,4.0,68,0.00,,,0.00,weatherlink.com 1.10,2013-05-01 05:10:00,
2013-04-30 22:25:00,43.2,33.0,30.39,WNW,284,2.0,4.0,68,0.00,,,0.00,weatherlink.com 1.10,2013-05-01 05:25:00,
2013-04-30 22:40:00,42.8,34.0,30.39,NNW,327,2.0,4.0,70,0.00,,,0.00,weatherlink.com 1.10,2013-05-01 05:40:00,
2013-04-30 22:55:00,42.6,34.0,30.39,SE,129,0.0,5.0,72,0.00,,,0.00,weatherlink.com 1.10,2013-05-01 05:55:00,
2013-04-30 23:10:00,45.6,36.0,30.39,South,187,3.0,10.0,70,0.00,,,0.00,weatherlink.com 1.10,2013-05-01 06:10:00,
2013-04-30 23:25:00,45.5,36.0,30.39,South,181,3.0,10.0,69,0.00,,,0.00,weatherlink.com 1.10,2013-05-01 06:25:00,
2013-04-30 23:40:00,44.1,36.0,30.40,SW,222,1.0,6.0,72,0.00,,,0.00,weatherlink.com 1.10,2013-05-01 06:40:00,
2013-04-30 23:55:00,42.8,34.0,30.41,NW,312,4.0,6.0,70,0.00,,,0.00,weatherlink.com 1.10,2013-05-01 06:55:00,